Year,Month,Day,Hour,Minute,Value (Times are PST for temperature in C)
2013,09,21,00,00,13.40
2013,09,21,00,01,13.40
2013,09,21,00,02,13.40
2013,09,21,00,03,13.40
2013,09,21,00,04,13.40
2013,09,21,00,05,13.40
2013,09,21,00,06,13.40
2013,09,21,00,07,13.40
2013,09,21,00,08,13.40
2013,09,21,00,09,13.40
2013,09,21,00,10,13.40
2013,09,21,00,11,13.30
2013,09,21,00,12,13.30
2013,09,21,00,13,13.30
2013,09,21,00,14,13.30
2013,09,21,00,15,13.30
2013,09,21,00,16,13.30
2013,09,21,00,17,13.30
2013,09,21,00,18,13.30
2013,09,21,00,19,13.30
2013,09,21,00,20,13.30
2013,09,21,00,21,13.30
2013,09,21,00,22,13.30
2013,09,21,00,23,13.30
2013,09,21,00,24,13.30
2013,09,21,00,25,13.30
2013,09,21,00,26,13.30
2013,09,21,00,27,13.30
2013,09,21,00,28,13.30
2013,09,21,00,29,13.30
2013,09,21,00,30,13.30
2013,09,21,00,31,13.30
2013,09,21,00,32,13.30
2013,09,21,00,33,13.30
2013,09,21,00,34,13.30
2013,09,21,00,35,13.30
2013,09,21,00,36,13.30
2013,09,21,00,37,13.30
2013,09,21,00,38,13.30
2013,09,21,00,39,13.30
2013,09,21,00,40,13.30
2013,09,21,00,41,13.30
2013,09,21,00,42,13.30
2013,09,21,00,43,13.40
2013,09,21,00,44,13.30
2013,09,21,00,45,13.40
2013,09,21,00,46,13.30
2013,09,21,00,47,13.40
2013,09,21,00,48,13.30
2013,09,21,00,49,13.30
2013,09,21,00,50,13.30
2013,09,21,00,51,13.30
2013,09,21,00,52,13.40
2013,09,21,00,53,13.40
2013,09,21,00,54,13.40
2013,09,21,00,55,13.40
2013,09,21,00,56,13.40
2013,09,21,00,57,13.30
2013,09,21,00,58,13.30
2013,09,21,00,59,13.30
2013,09,21,01,00,13.30
2013,09,21,01,01,13.30
2013,09,21,01,02,13.30
2013,09,21,01,03,13.30
2013,09,21,01,04,13.30
2013,09,21,01,05,13.40
2013,09,21,01,06,13.40
2013,09,21,01,07,13.40
2013,09,21,01,08,13.40
2013,09,21,01,09,13.40
2013,09,21,01,10,13.40
2013,09,21,01,11,13.40
2013,09,21,01,12,13.40
2013,09,21,01,13,13.40
2013,09,21,01,14,13.30
2013,09,21,01,15,13.30
2013,09,21,01,16,13.30
2013,09,21,01,17,13.30
2013,09,21,01,18,13.30
2013,09,21,01,19,13.30
2013,09,21,01,20,13.30
2013,09,21,01,21,13.30
2013,09,21,01,22,13.30
2013,09,21,01,23,13.30
2013,09,21,01,24,13.30
2013,09,21,01,25,13.30
2013,09,21,01,26,13.30
2013,09,21,01,27,13.30
2013,09,21,01,28,13.30
2013,09,21,01,29,13.30
2013,09,21,01,30,13.30
2013,09,21,01,31,13.30
2013,09,21,01,32,13.30
2013,09,21,01,33,13.30
2013,09,21,01,34,13.30
2013,09,21,01,35,13.30
2013,09,21,01,36,13.30
2013,09,21,01,37,13.30
2013,09,21,01,38,13.30
2013,09,21,01,39,13.30
2013,09,21,01,40,13.30
2013,09,21,01,41,13.30
2013,09,21,01,42,13.30
2013,09,21,01,43,13.30
2013,09,21,01,44,13.30
2013,09,21,01,45,13.30
2013,09,21,01,46,13.30
2013,09,21,01,47,13.30
2013,09,21,01,48,13.30
2013,09,21,01,49,13.30
2013,09,21,01,50,13.30
2013,09,21,01,51,13.30
2013,09,21,01,52,13.30
2013,09,21,01,53,13.30
2013,09,21,01,54,13.30
2013,09,21,01,55,13.30
2013,09,21,01,56,13.30
2013,09,21,01,57,13.30
2013,09,21,01,58,13.30
2013,09,21,01,59,13.30
2013,09,21,02,00,13.30
2013,09,21,02,01,13.30
2013,09,21,02,02,13.30
2013,09,21,02,03,13.30
2013,09,21,02,04,13.30
2013,09,21,02,05,13.30
2013,09,21,02,06,13.30
2013,09,21,02,07,13.30
2013,09,21,02,08,13.30
2013,09,21,02,09,13.30
2013,09,21,02,10,13.30
2013,09,21,02,11,13.30
2013,09,21,02,12,13.30
2013,09,21,02,13,13.30
2013,09,21,02,14,13.30
2013,09,21,02,15,13.30
2013,09,21,02,16,13.30
2013,09,21,02,17,13.30
2013,09,21,02,18,13.30
2013,09,21,02,19,13.30
2013,09,21,02,20,13.30
2013,09,21,02,21,13.30
2013,09,21,02,22,13.30
2013,09,21,02,23,13.30
2013,09,21,02,24,13.30
2013,09,21,02,25,13.30
2013,09,21,02,26,13.30
2013,09,21,02,27,13.30
2013,09,21,02,28,13.30
2013,09,21,02,29,13.30
2013,09,21,02,30,13.30
2013,09,21,02,31,13.30
2013,09,21,02,32,13.30
2013,09,21,02,33,13.30
2013,09,21,02,34,13.30
2013,09,21,02,35,13.30
2013,09,21,02,36,13.30
2013,09,21,02,37,13.30
2013,09,21,02,38,13.30
2013,09,21,02,39,13.30
2013,09,21,02,40,13.30
2013,09,21,02,41,13.30
2013,09,21,02,42,13.30
2013,09,21,02,43,13.30
2013,09,21,02,44,13.30
2013,09,21,02,45,13.30
2013,09,21,02,46,13.30
2013,09,21,02,47,13.30
2013,09,21,02,48,13.30
2013,09,21,02,49,13.30
2013,09,21,02,50,13.30
2013,09,21,02,51,13.30
2013,09,21,02,52,13.30
2013,09,21,02,53,13.30
2013,09,21,02,54,13.20
2013,09,21,02,55,13.20
2013,09,21,02,56,13.20
2013,09,21,02,57,13.20
2013,09,21,02,58,13.20
2013,09,21,02,59,13.20
2013,09,21,03,00,13.20
2013,09,21,03,01,13.20
2013,09,21,03,02,13.20
2013,09,21,03,03,13.20
2013,09,21,03,04,13.20
2013,09,21,03,05,13.20
2013,09,21,03,06,13.20
2013,09,21,03,07,13.20
2013,09,21,03,08,13.20
2013,09,21,03,09,13.20
2013,09,21,03,10,13.20
2013,09,21,03,11,13.20
2013,09,21,03,12,13.20
2013,09,21,03,13,13.20
2013,09,21,03,14,13.20
2013,09,21,03,15,13.20
2013,09,21,03,16,13.20
2013,09,21,03,17,13.20
2013,09,21,03,18,13.20
2013,09,21,03,19,13.20
2013,09,21,03,20,13.20
2013,09,21,03,21,13.20
2013,09,21,03,22,13.20
2013,09,21,03,23,13.20
2013,09,21,03,24,13.20
2013,09,21,03,25,13.10
2013,09,21,03,26,13.10
2013,09,21,03,27,13.10
2013,09,21,03,28,13.10
2013,09,21,03,29,13.10
2013,09,21,03,30,13.10
2013,09,21,03,31,13.10
2013,09,21,03,32,13.10
2013,09,21,03,33,13.10
2013,09,21,03,34,13.10
2013,09,21,03,35,13.10
2013,09,21,03,36,13.10
2013,09,21,03,37,13.10
2013,09,21,03,38,13.10
2013,09,21,03,39,13.00
2013,09,21,03,40,13.00
2013,09,21,03,41,13.00
2013,09,21,03,42,13.00
2013,09,21,03,43,13.00
2013,09,21,03,44,13.00
2013,09,21,03,45,13.00
2013,09,21,03,46,13.00
2013,09,21,03,47,13.00
2013,09,21,03,48,12.90
2013,09,21,03,49,12.90
2013,09,21,03,50,12.90
2013,09,21,03,51,12.90
2013,09,21,03,52,12.90
2013,09,21,03,53,12.90
2013,09,21,03,54,12.90
2013,09,21,03,55,12.90
2013,09,21,03,56,12.90
2013,09,21,03,57,12.90
2013,09,21,03,58,12.90
2013,09,21,03,59,12.80
2013,09,21,04,00,12.80
2013,09,21,04,01,12.80
2013,09,21,04,02,12.80
2013,09,21,04,03,12.80
2013,09,21,04,04,12.80
2013,09,21,04,05,12.80
2013,09,21,04,06,12.80
2013,09,21,04,07,12.80
2013,09,21,04,08,12.80
2013,09,21,04,09,12.80
2013,09,21,04,10,12.80
2013,09,21,04,11,12.70
2013,09,21,04,12,12.70
2013,09,21,04,13,12.70
2013,09,21,04,14,12.70
2013,09,21,04,15,12.70
2013,09,21,04,16,12.70
2013,09,21,04,17,12.70
2013,09,21,04,18,12.70
2013,09,21,04,19,12.70
2013,09,21,04,20,12.70
2013,09,21,04,21,12.70
2013,09,21,04,22,12.70
2013,09,21,04,23,12.70
2013,09,21,04,24,12.70
2013,09,21,04,25,12.70
2013,09,21,04,26,12.60
2013,09,21,04,27,12.60
2013,09,21,04,28,12.60
2013,09,21,04,29,12.60
2013,09,21,04,30,12.60
2013,09,21,04,31,12.60
2013,09,21,04,32,12.60
2013,09,21,04,33,12.60
2013,09,21,04,34,12.60
2013,09,21,04,35,12.60
2013,09,21,04,36,12.60
2013,09,21,04,37,12.60
2013,09,21,04,38,12.60
2013,09,21,04,39,12.50
2013,09,21,04,40,12.50
2013,09,21,04,41,12.50
2013,09,21,04,42,12.50
2013,09,21,04,43,12.50
2013,09,21,04,44,12.50
2013,09,21,04,45,12.50
2013,09,21,04,46,12.50
2013,09,21,04,47,12.50
2013,09,21,04,48,12.40
2013,09,21,04,49,12.40
2013,09,21,04,50,12.40
2013,09,21,04,51,12.40
2013,09,21,04,52,12.40
2013,09,21,04,53,12.40
2013,09,21,04,54,12.40
2013,09,21,04,55,12.40
2013,09,21,04,56,12.40
2013,09,21,04,57,12.40
2013,09,21,04,58,12.40
2013,09,21,04,59,12.40
2013,09,21,05,00,12.40
2013,09,21,05,01,12.40
2013,09,21,05,02,12.40
2013,09,21,05,03,12.40
2013,09,21,05,04,12.40
2013,09,21,05,05,12.40
2013,09,21,05,06,12.40
2013,09,21,05,07,12.40
2013,09,21,05,08,12.40
2013,09,21,05,09,12.40
2013,09,21,05,10,12.30
2013,09,21,05,11,12.30
2013,09,21,05,12,12.30
2013,09,21,05,13,12.30
2013,09,21,05,14,12.30
2013,09,21,05,15,12.30
2013,09,21,05,16,12.30
2013,09,21,05,17,12.20
2013,09,21,05,18,12.20
2013,09,21,05,19,12.20
2013,09,21,05,20,12.20
2013,09,21,05,21,12.20
2013,09,21,05,22,12.20
2013,09,21,05,23,12.20
2013,09,21,05,24,12.10
2013,09,21,05,25,12.10
2013,09,21,05,26,12.10
2013,09,21,05,27,12.10
2013,09,21,05,28,12.10
2013,09,21,05,29,12.10
2013,09,21,05,30,12.10
2013,09,21,05,31,12.00
2013,09,21,05,32,12.00
2013,09,21,05,33,11.90
2013,09,21,05,34,11.90
2013,09,21,05,35,11.90
2013,09,21,05,36,11.90
2013,09,21,05,37,11.90
2013,09,21,05,38,11.80
2013,09,21,05,39,11.80
2013,09,21,05,40,11.80
2013,09,21,05,41,11.80
2013,09,21,05,42,11.80
2013,09,21,05,43,11.80
2013,09,21,05,44,11.80
2013,09,21,05,45,11.70
2013,09,21,05,46,11.70
2013,09,21,05,47,11.70
2013,09,21,05,48,11.70
2013,09,21,05,49,11.70
2013,09,21,05,50,11.70
2013,09,21,05,51,11.60
2013,09,21,05,52,11.60
2013,09,21,05,53,11.50
2013,09,21,05,54,11.50
2013,09,21,05,55,11.40
2013,09,21,05,56,11.40
2013,09,21,05,57,11.30
2013,09,21,05,58,11.30
2013,09,21,05,59,11.20
2013,09,21,06,00,11.20
2013,09,21,06,01,11.20
2013,09,21,06,02,11.20
2013,09,21,06,03,11.10
2013,09,21,06,04,11.10
2013,09,21,06,05,11.10
2013,09,21,06,06,11.00
2013,09,21,06,07,11.00
2013,09,21,06,08,11.00
2013,09,21,06,09,10.90
2013,09,21,06,10,10.90
2013,09,21,06,11,10.90
2013,09,21,06,12,10.90
2013,09,21,06,13,10.80
2013,09,21,06,14,10.80
2013,09,21,06,15,10.80
2013,09,21,06,16,10.70
2013,09,21,06,17,10.70
2013,09,21,06,18,10.70
2013,09,21,06,19,10.60
2013,09,21,06,20,10.60
2013,09,21,06,21,10.60
2013,09,21,06,22,10.60
2013,09,21,06,23,10.50
2013,09,21,06,24,10.50
2013,09,21,06,25,10.50
2013,09,21,06,26,10.50
2013,09,21,06,27,10.50
2013,09,21,06,28,10.50
2013,09,21,06,29,10.50
2013,09,21,06,30,10.40
2013,09,21,06,31,10.40
2013,09,21,06,32,10.40
2013,09,21,06,33,10.40
2013,09,21,06,34,10.40
2013,09,21,06,35,10.40
2013,09,21,06,36,10.40
2013,09,21,06,37,10.40
2013,09,21,06,38,10.50
2013,09,21,06,39,10.50
2013,09,21,06,40,10.50
2013,09,21,06,41,10.50
2013,09,21,06,42,10.50
2013,09,21,06,43,10.50
2013,09,21,06,44,10.50
2013,09,21,06,45,10.50
2013,09,21,06,46,10.50
2013,09,21,06,47,10.50
2013,09,21,06,48,10.40
2013,09,21,06,49,10.40
2013,09,21,06,50,10.40
2013,09,21,06,51,10.40
2013,09,21,06,52,10.40
2013,09,21,06,53,10.40
2013,09,21,06,54,10.40
2013,09,21,06,55,10.40
2013,09,21,06,56,10.30
2013,09,21,06,57,10.30
2013,09,21,06,58,10.30
2013,09,21,06,59,10.30
2013,09,21,07,00,10.30
2013,09,21,07,01,10.30
2013,09,21,07,02,10.20
2013,09,21,07,03,10.20
2013,09,21,07,04,10.20
2013,09,21,07,05,10.20
2013,09,21,07,06,10.20
2013,09,21,07,07,10.20
2013,09,21,07,08,10.30
2013,09,21,07,09,10.30
2013,09,21,07,10,10.20
2013,09,21,07,11,10.20
2013,09,21,07,12,10.20
2013,09,21,07,13,10.20
2013,09,21,07,14,10.10
2013,09,21,07,15,10.10
2013,09,21,07,16,10.00
2013,09,21,07,17,10.00
2013,09,21,07,18,10.00
2013,09,21,07,19,9.90
2013,09,21,07,20,9.90
2013,09,21,07,21,9.90
2013,09,21,07,22,9.90
2013,09,21,07,23,9.90
2013,09,21,07,24,9.90
2013,09,21,07,25,9.90
2013,09,21,07,26,10.00
2013,09,21,07,27,10.00
2013,09,21,07,28,10.00
2013,09,21,07,29,9.90
2013,09,21,07,30,9.90
2013,09,21,07,31,10.00
2013,09,21,07,32,10.00
2013,09,21,07,33,10.00
2013,09,21,07,34,10.00
2013,09,21,07,35,10.00
2013,09,21,07,36,10.00
2013,09,21,07,37,10.00
2013,09,21,07,38,10.00
2013,09,21,07,39,10.00
2013,09,21,07,40,10.00
2013,09,21,07,41,10.00
2013,09,21,07,42,10.00
2013,09,21,07,43,10.00
2013,09,21,07,44,10.00
2013,09,21,07,45,10.10
2013,09,21,07,46,10.10
2013,09,21,07,47,10.10
2013,09,21,07,48,10.10
2013,09,21,07,49,10.10
2013,09,21,07,50,10.00
2013,09,21,07,51,10.00
2013,09,21,07,52,10.00
2013,09,21,07,53,10.00
2013,09,21,07,54,10.00
2013,09,21,07,55,10.00
2013,09,21,07,56,10.10
2013,09,21,07,57,10.10
2013,09,21,07,58,10.10
2013,09,21,07,59,10.10
2013,09,21,08,00,10.10
2013,09,21,08,01,10.10
2013,09,21,08,02,10.10
2013,09,21,08,03,10.00
2013,09,21,08,04,10.00
2013,09,21,08,05,10.00
2013,09,21,08,06,10.00
2013,09,21,08,07,10.00
2013,09,21,08,08,10.10
2013,09,21,08,09,10.10
2013,09,21,08,10,10.10
2013,09,21,08,11,10.10
2013,09,21,08,12,10.10
2013,09,21,08,13,10.20
2013,09,21,08,14,10.20
2013,09,21,08,15,10.30
2013,09,21,08,16,10.30
2013,09,21,08,17,10.30
2013,09,21,08,18,10.30
2013,09,21,08,19,10.40
2013,09,21,08,20,10.40
2013,09,21,08,21,10.40
2013,09,21,08,22,10.50
2013,09,21,08,23,10.50
2013,09,21,08,24,10.60
2013,09,21,08,25,10.60
2013,09,21,08,26,10.60
2013,09,21,08,27,10.60
2013,09,21,08,28,10.70
2013,09,21,08,29,10.70
2013,09,21,08,30,10.80
2013,09,21,08,31,10.80
2013,09,21,08,32,10.80
2013,09,21,08,33,10.90
2013,09,21,08,34,10.90
2013,09,21,08,35,11.00
2013,09,21,08,36,11.00
2013,09,21,08,37,11.10
2013,09,21,08,38,11.20
2013,09,21,08,39,11.30
2013,09,21,08,40,11.40
2013,09,21,08,41,11.40
2013,09,21,08,42,11.50
2013,09,21,08,43,11.60
2013,09,21,08,44,11.60
2013,09,21,08,45,11.60
2013,09,21,08,46,11.70
2013,09,21,08,47,11.70
2013,09,21,08,48,11.70
2013,09,21,08,49,11.70
2013,09,21,08,50,11.70
2013,09,21,08,51,11.80
2013,09,21,08,52,11.80
2013,09,21,08,53,11.80
2013,09,21,08,54,11.90
2013,09,21,08,55,11.90
2013,09,21,08,56,11.90
2013,09,21,08,57,11.90
2013,09,21,08,58,12.00
2013,09,21,08,59,12.00
2013,09,21,09,00,12.10
2013,09,21,09,01,12.10
2013,09,21,09,02,12.20
2013,09,21,09,03,12.30
2013,09,21,09,04,12.30
2013,09,21,09,05,12.40
2013,09,21,09,06,12.40
2013,09,21,09,07,12.50
2013,09,21,09,08,12.50
2013,09,21,09,09,12.60
2013,09,21,09,10,12.60
2013,09,21,09,11,12.70
2013,09,21,09,12,12.70
2013,09,21,09,13,12.70
2013,09,21,09,14,12.80
2013,09,21,09,15,12.80
2013,09,21,09,16,12.80
2013,09,21,09,17,12.80
2013,09,21,09,18,12.80
2013,09,21,09,19,12.90
2013,09,21,09,20,12.90
2013,09,21,09,21,13.00
2013,09,21,09,22,13.00
2013,09,21,09,23,13.10
2013,09,21,09,24,13.10
2013,09,21,09,25,13.20
2013,09,21,09,26,13.30
2013,09,21,09,27,13.30
2013,09,21,09,28,13.40
2013,09,21,09,29,13.50
2013,09,21,09,30,13.60
2013,09,21,09,31,13.70
2013,09,21,09,32,13.80
2013,09,21,09,33,13.90
2013,09,21,09,34,14.00
2013,09,21,09,35,14.10
2013,09,21,09,36,14.20
2013,09,21,09,37,14.30
2013,09,21,09,38,14.30
2013,09,21,09,39,14.30
2013,09,21,09,40,14.30
2013,09,21,09,41,14.30
2013,09,21,09,42,14.30
2013,09,21,09,43,14.40
2013,09,21,09,44,14.40
2013,09,21,09,45,14.40
2013,09,21,09,46,14.50
2013,09,21,09,47,14.50
2013,09,21,09,48,14.50
2013,09,21,09,49,14.60
2013,09,21,09,50,14.60
2013,09,21,09,51,14.70
2013,09,21,09,52,14.80
2013,09,21,09,53,14.90
2013,09,21,09,54,15.00
2013,09,21,09,55,15.00
2013,09,21,09,56,15.00
2013,09,21,09,57,15.10
2013,09,21,09,58,15.20
2013,09,21,09,59,15.30
2013,09,21,10,00,15.30
2013,09,21,10,01,15.30
2013,09,21,10,02,15.30
2013,09,21,10,03,15.40
2013,09,21,10,04,15.40
2013,09,21,10,05,15.50
2013,09,21,10,06,15.60
2013,09,21,10,07,15.60
2013,09,21,10,08,15.60
2013,09,21,10,09,15.60
2013,09,21,10,10,15.60
2013,09,21,10,11,15.50
2013,09,21,10,12,15.40
2013,09,21,10,13,15.50
2013,09,21,10,14,15.50
2013,09,21,10,15,15.60
2013,09,21,10,16,15.70
2013,09,21,10,17,15.70
2013,09,21,10,18,15.80
2013,09,21,10,19,15.90
2013,09,21,10,20,15.90
2013,09,21,10,21,15.90
2013,09,21,10,22,15.80
2013,09,21,10,23,15.80
2013,09,21,10,24,15.70
2013,09,21,10,25,15.70
2013,09,21,10,26,15.70
2013,09,21,10,27,15.50
2013,09,21,10,28,15.40
2013,09,21,10,29,15.30
2013,09,21,10,30,15.30
2013,09,21,10,31,15.20
2013,09,21,10,32,15.20
2013,09,21,10,33,15.20
2013,09,21,10,34,15.30
2013,09,21,10,35,15.30
2013,09,21,10,36,15.30
2013,09,21,10,37,15.30
2013,09,21,10,38,15.30
2013,09,21,10,39,15.20
2013,09,21,10,40,15.10
2013,09,21,10,41,15.00
2013,09,21,10,42,15.00
2013,09,21,10,43,15.00
2013,09,21,10,44,15.10
2013,09,21,10,45,15.20
2013,09,21,10,46,15.20
2013,09,21,10,47,15.30
2013,09,21,10,48,15.40
2013,09,21,10,49,15.40
2013,09,21,10,50,15.40
2013,09,21,10,51,15.30
2013,09,21,10,52,15.30
2013,09,21,10,53,15.30
2013,09,21,10,54,15.40
2013,09,21,10,55,15.40
2013,09,21,10,56,15.50
2013,09,21,10,57,15.50
2013,09,21,10,58,15.40
2013,09,21,10,59,15.30
2013,09,21,11,00,15.20
2013,09,21,11,01,15.10
2013,09,21,11,02,15.10
2013,09,21,11,03,15.00
2013,09,21,11,04,15.00
2013,09,21,11,05,15.00
2013,09,21,11,06,14.90
2013,09,21,11,07,14.90
2013,09,21,11,08,14.80
2013,09,21,11,09,14.70
2013,09,21,11,10,14.70
2013,09,21,11,11,14.80
2013,09,21,11,12,14.80
2013,09,21,11,13,14.90
2013,09,21,11,14,14.80
2013,09,21,11,15,14.80
2013,09,21,11,16,14.80
2013,09,21,11,17,14.70
2013,09,21,11,18,14.70
2013,09,21,11,19,14.80
2013,09,21,11,20,14.80
2013,09,21,11,21,14.80
2013,09,21,11,22,14.80
2013,09,21,11,23,14.80
2013,09,21,11,24,14.90
2013,09,21,11,25,14.90
2013,09,21,11,26,14.90
2013,09,21,11,27,14.80
2013,09,21,11,28,14.90
2013,09,21,11,29,14.80
2013,09,21,11,30,14.90
2013,09,21,11,31,14.90
2013,09,21,11,32,15.00
2013,09,21,11,33,15.00
2013,09,21,11,34,15.00
2013,09,21,11,35,15.00
2013,09,21,11,36,15.00
2013,09,21,11,37,15.00
2013,09,21,11,38,14.90
2013,09,21,11,39,14.80
2013,09,21,11,40,14.80
2013,09,21,11,41,14.70
2013,09,21,11,42,14.70
2013,09,21,11,43,14.70
2013,09,21,11,44,14.80
2013,09,21,11,45,14.80
2013,09,21,11,46,14.80
2013,09,21,11,47,14.80
2013,09,21,11,48,14.90
2013,09,21,11,49,14.90
2013,09,21,11,50,14.90
2013,09,21,11,51,14.80
2013,09,21,11,52,14.80
2013,09,21,11,53,14.80
2013,09,21,11,54,14.80
2013,09,21,11,55,14.80
2013,09,21,11,56,14.70
2013,09,21,11,57,14.70
2013,09,21,11,58,14.70
2013,09,21,11,59,14.70
2013,09,21,12,00,14.70
2013,09,21,12,01,14.80
2013,09,21,12,02,14.90
2013,09,21,12,03,15.00
2013,09,21,12,04,15.00
2013,09,21,12,05,15.00
2013,09,21,12,06,15.00
2013,09,21,12,07,15.00
2013,09,21,12,08,15.00
2013,09,21,12,09,15.00
2013,09,21,12,10,15.00
2013,09,21,12,11,15.00
2013,09,21,12,12,15.00
2013,09,21,12,13,15.00
2013,09,21,12,14,15.00
2013,09,21,12,15,15.00
2013,09,21,12,16,15.00
2013,09,21,12,17,15.00
2013,09,21,12,18,15.10
2013,09,21,12,19,15.10
2013,09,21,12,20,15.20
2013,09,21,12,21,15.20
2013,09,21,12,22,15.10
2013,09,21,12,23,15.00
2013,09,21,12,24,15.00
2013,09,21,12,25,15.00
2013,09,21,12,26,15.00
2013,09,21,12,27,15.00
2013,09,21,12,28,15.00
2013,09,21,12,29,15.00
2013,09,21,12,30,15.00
2013,09,21,12,31,15.00
2013,09,21,12,32,15.00
2013,09,21,12,33,15.00
2013,09,21,12,34,15.00
2013,09,21,12,35,15.00
2013,09,21,12,36,15.00
2013,09,21,12,37,15.00
2013,09,21,12,38,15.00
2013,09,21,12,39,15.00
2013,09,21,12,40,15.00
2013,09,21,12,41,15.00
2013,09,21,12,42,15.00
2013,09,21,12,43,15.00
2013,09,21,12,44,15.00
2013,09,21,12,45,15.00
2013,09,21,12,46,15.00
2013,09,21,12,47,15.00
2013,09,21,12,48,15.00
2013,09,21,12,49,15.00
2013,09,21,12,50,15.00
2013,09,21,12,51,15.00
2013,09,21,12,52,15.00
2013,09,21,12,53,15.00
2013,09,21,12,54,15.00
2013,09,21,12,55,15.10
2013,09,21,12,56,15.10
2013,09,21,12,57,15.10
2013,09,21,12,58,15.20
2013,09,21,12,59,15.30
2013,09,21,13,00,15.30
2013,09,21,13,01,15.30
2013,09,21,13,02,15.30
2013,09,21,13,03,15.30
2013,09,21,13,04,15.30
2013,09,21,13,05,15.30
2013,09,21,13,06,15.30
2013,09,21,13,07,15.20
2013,09,21,13,08,15.30
2013,09,21,13,09,15.30
2013,09,21,13,10,15.40
2013,09,21,13,11,15.40
2013,09,21,13,12,15.40
2013,09,21,13,13,15.40
2013,09,21,13,14,15.50
2013,09,21,13,15,15.60
2013,09,21,13,16,15.60
2013,09,21,13,17,15.70
2013,09,21,13,18,15.70
2013,09,21,13,19,15.80
2013,09,21,13,20,15.90
2013,09,21,13,21,15.90
2013,09,21,13,22,16.00
2013,09,21,13,23,16.00
2013,09,21,13,24,16.10
2013,09,21,13,25,16.10
2013,09,21,13,26,16.10
2013,09,21,13,27,16.20
2013,09,21,13,28,16.10
2013,09,21,13,29,16.20
2013,09,21,13,30,16.20
2013,09,21,13,31,16.30
2013,09,21,13,32,16.30
2013,09,21,13,33,16.30
2013,09,21,13,34,16.40
2013,09,21,13,35,16.40
2013,09,21,13,36,16.30
2013,09,21,13,37,16.30
2013,09,21,13,38,16.30
2013,09,21,13,39,16.30
2013,09,21,13,40,16.30
2013,09,21,13,41,16.30
2013,09,21,13,42,16.30
2013,09,21,13,43,16.20
2013,09,21,13,44,16.20
2013,09,21,13,45,16.20
2013,09,21,13,46,16.20
2013,09,21,13,47,16.20
2013,09,21,13,48,16.20
2013,09,21,13,49,16.20
2013,09,21,13,50,16.20
2013,09,21,13,51,16.20
2013,09,21,13,52,16.30
2013,09,21,13,53,16.30
2013,09,21,13,54,16.20
2013,09,21,13,55,16.20
2013,09,21,13,56,16.20
2013,09,21,13,57,16.20
2013,09,21,13,58,16.20
2013,09,21,13,59,16.20
2013,09,21,14,00,16.30
2013,09,21,14,01,16.30
2013,09,21,14,02,16.20
2013,09,21,14,03,16.20
2013,09,21,14,04,16.30
2013,09,21,14,05,16.20
2013,09,21,14,06,16.20
2013,09,21,14,07,16.20
2013,09,21,14,08,16.20
2013,09,21,14,09,16.20
2013,09,21,14,10,16.20
2013,09,21,14,11,16.20
2013,09,21,14,12,16.20
2013,09,21,14,13,16.10
2013,09,21,14,14,16.10
2013,09,21,14,15,16.10
2013,09,21,14,16,16.00
2013,09,21,14,17,16.00
2013,09,21,14,18,16.00
2013,09,21,14,19,16.00
2013,09,21,14,20,15.90
2013,09,21,14,21,15.90
2013,09,21,14,22,15.80
2013,09,21,14,23,15.80
2013,09,21,14,24,15.80
2013,09,21,14,25,15.70
2013,09,21,14,26,15.70
2013,09,21,14,27,15.70
2013,09,21,14,28,15.60
2013,09,21,14,29,15.60
2013,09,21,14,30,15.60
2013,09,21,14,31,15.60
2013,09,21,14,32,15.60
2013,09,21,14,33,15.60
2013,09,21,14,34,15.60
2013,09,21,14,35,15.50
2013,09,21,14,36,15.50
2013,09,21,14,37,15.50
2013,09,21,14,38,15.50
2013,09,21,14,39,15.60
2013,09,21,14,40,15.60
2013,09,21,14,41,15.60
2013,09,21,14,42,15.70
2013,09,21,14,43,15.70
2013,09,21,14,44,15.70
2013,09,21,14,45,15.70
2013,09,21,14,46,15.70
2013,09,21,14,47,15.70
2013,09,21,14,48,15.60
2013,09,21,14,49,15.70
2013,09,21,14,50,15.70
2013,09,21,14,51,15.80
2013,09,21,14,52,15.80
2013,09,21,14,53,15.90
2013,09,21,14,54,15.90
2013,09,21,14,55,16.00
2013,09,21,14,56,16.10
2013,09,21,14,57,16.10
2013,09,21,14,58,16.00
2013,09,21,14,59,16.00
2013,09,21,15,00,15.90
2013,09,21,15,01,15.80
2013,09,21,15,02,15.80
2013,09,21,15,03,15.70
2013,09,21,15,04,15.70
2013,09,21,15,05,15.70
2013,09,21,15,06,15.70
2013,09,21,15,07,15.70
2013,09,21,15,08,15.70
2013,09,21,15,09,15.70
2013,09,21,15,10,15.70
2013,09,21,15,11,15.70
2013,09,21,15,12,15.70
2013,09,21,15,13,15.70
2013,09,21,15,14,15.60
2013,09,21,15,15,15.60
2013,09,21,15,16,15.60
2013,09,21,15,17,15.60
2013,09,21,15,18,15.60
2013,09,21,15,19,15.60
2013,09,21,15,20,15.60
2013,09,21,15,21,15.60
2013,09,21,15,22,15.60
2013,09,21,15,23,15.70
2013,09,21,15,24,15.70
2013,09,21,15,25,15.70
2013,09,21,15,26,15.70
2013,09,21,15,27,15.70
2013,09,21,15,28,15.70
2013,09,21,15,29,15.70
2013,09,21,15,30,15.80
2013,09,21,15,31,15.80
2013,09,21,15,32,15.80
2013,09,21,15,33,15.90
2013,09,21,15,34,15.90
2013,09,21,15,35,16.00
2013,09,21,15,36,16.10
2013,09,21,15,37,16.20
2013,09,21,15,38,16.20
2013,09,21,15,39,16.30
2013,09,21,15,40,16.30
2013,09,21,15,41,16.30
2013,09,21,15,42,16.40
2013,09,21,15,43,16.40
2013,09,21,15,44,16.40
2013,09,21,15,45,16.40
2013,09,21,15,46,16.40
2013,09,21,15,47,16.40
2013,09,21,15,48,16.40
2013,09,21,15,49,16.30
2013,09,21,15,50,16.40
2013,09,21,15,51,16.40
2013,09,21,15,52,16.40
2013,09,21,15,53,16.40
2013,09,21,15,54,16.40
2013,09,21,15,55,16.50
2013,09,21,15,56,16.50
2013,09,21,15,57,16.50
2013,09,21,15,58,16.50
2013,09,21,15,59,16.50
2013,09,21,16,00,16.60
2013,09,21,16,01,16.60
2013,09,21,16,02,16.60
2013,09,21,16,03,16.70
2013,09,21,16,04,16.70
2013,09,21,16,05,16.80
2013,09,21,16,06,16.80
2013,09,21,16,07,16.90
2013,09,21,16,08,16.90
2013,09,21,16,09,16.90
2013,09,21,16,10,16.90
2013,09,21,16,11,16.90
2013,09,21,16,12,16.90
2013,09,21,16,13,17.00
2013,09,21,16,14,17.00
2013,09,21,16,15,17.00
2013,09,21,16,16,17.00
2013,09,21,16,17,17.00
2013,09,21,16,18,17.00
2013,09,21,16,19,16.90
2013,09,21,16,20,16.90
2013,09,21,16,21,16.80
2013,09,21,16,22,16.80
2013,09,21,16,23,16.80
2013,09,21,16,24,16.70
2013,09,21,16,25,16.70
2013,09,21,16,26,16.70
2013,09,21,16,27,16.70
2013,09,21,16,28,16.70
2013,09,21,16,29,16.70
2013,09,21,16,30,16.70
2013,09,21,16,31,16.70
2013,09,21,16,32,16.70
2013,09,21,16,33,16.80
2013,09,21,16,34,16.80
2013,09,21,16,35,16.90
2013,09,21,16,36,16.90
2013,09,21,16,37,16.90
2013,09,21,16,38,16.90
2013,09,21,16,39,16.90
2013,09,21,16,40,16.90
2013,09,21,16,41,16.80
2013,09,21,16,42,16.80
2013,09,21,16,43,16.80
2013,09,21,16,44,16.80
2013,09,21,16,45,16.70
2013,09,21,16,46,16.70
2013,09,21,16,47,16.70
2013,09,21,16,48,16.70
2013,09,21,16,49,16.70
2013,09,21,16,50,16.70
2013,09,21,16,51,16.70
2013,09,21,16,52,16.70
2013,09,21,16,53,16.80
2013,09,21,16,54,16.90
2013,09,21,16,55,17.00
2013,09,21,16,56,16.90
2013,09,21,16,57,16.90
2013,09,21,16,58,16.90
2013,09,21,16,59,16.80
2013,09,21,17,00,16.80
2013,09,21,17,01,16.80
2013,09,21,17,02,16.80
2013,09,21,17,03,16.90
2013,09,21,17,04,16.90
2013,09,21,17,05,17.00
2013,09,21,17,06,17.10
2013,09,21,17,07,17.20
2013,09,21,17,08,17.20
2013,09,21,17,09,17.30
2013,09,21,17,10,17.30
2013,09,21,17,11,17.20
2013,09,21,17,12,17.20
2013,09,21,17,13,17.20
2013,09,21,17,14,17.10
2013,09,21,17,15,17.10
2013,09,21,17,16,17.10
2013,09,21,17,17,17.10
2013,09,21,17,18,17.00
2013,09,21,17,19,17.00